This is the latest recevied weather packets stored in our database for station/object HB9FHL-13. If no packets are shown the sender has not sent any weather packets the latest 10 day(s).
| Time | Temp. | Humidity | Pressure | Rain* | Wind** | Luminosity | Snow |
|---|---|---|---|---|---|---|---|
| 1777457508 | 10.56° C | - | 1018.6 hPa | 2.29 mm | - | - | - |
| 1777457208 | 10.56° C | - | 1020.2 hPa | 2.29 mm | - | - | - |
| 1777456907 | 10° C | - | 1015.3 hPa | 2.29 mm | - | - | - |
| 1777456606 | 10° C | - | 1016.9 hPa | 2.29 mm | - | - | - |
| 1777456304 | 9.44° C | - | 1019.2 hPa | 2.29 mm | - | - | - |
| 1777456004 | 10.56° C | - | 1023.2 hPa | 2.29 mm | - | - | - |
| 1777455703 | 11.11° C | - | 1022.5 hPa | 2.29 mm | - | - | - |
| 1777455403 | 11.67° C | - | 1027.1 hPa | 2.29 mm | - | - | - |
| 1777455102 | 11.11° C | - | 1023 hPa | 2.29 mm | - | - | - |
| 1777454802 | 11.11° C | - | 1011.3 hPa | 2.29 mm | - | - | - |
| 1777454500 | 11.11° C | - | 1008.5 hPa | 2.29 mm | - | - | - |
| 1777454200 | 10.56° C | - | 1018.2 hPa | 2.29 mm | - | - | - |
| 1777453899 | 11.11° C | - | 1019.3 hPa | 2.29 mm | - | - | - |
| 1777453634 | 10.56° C | - | 1011.1 hPa | 2.29 mm | - | - | - |
| 1777453599 | 10.56° C | - | 1011.1 hPa | 2.29 mm | - | - | - |
| 1777453299 | 11.67° C | - | 1020.2 hPa | 2.29 mm | - | - | - |
| 1777452998 | 11.11° C | - | 1021.8 hPa | 2.29 mm | - | - | - |
| 1777452698 | 12.78° C | - | 1019.3 hPa | 2.29 mm | - | - | - |
| 1777452397 | 11.67° C | - | 1017.9 hPa | 2.29 mm | - | - | - |
| 1777452096 | 11.67° C | - | 1015.2 hPa | 2.29 mm | - | - | - |
| 1777451795 | 11.11° C | - | 1021.8 hPa | 2.29 mm | - | - | - |
| 1777451495 | 10.56° C | - | 1017.4 hPa | 2.29 mm | - | - | - |
| 1777451258 | 11.67° C | - | 1019.2 hPa | 2.03 mm | - | - | - |
| 1777451195 | 11.67° C | - | 1019.2 hPa | 2.03 mm | - | - | - |
| 1777450593 | 10° C | - | 1015.3 hPa | 2.03 mm | - | - | - |
* Rain since midnight (hover to see other rain measurements)
** Current wind speed in m/s (hover to see current wind gust speed)